User: anonymous   Login
Location: Dover
(39.1580°N, 75.5250°W)
Time: 15:17:09
(UTC-04:00)
Language:

Cosmos 1437 Rocket - Orbit

View from above orbital plane
View from above orbital plane
View from above satellite
View from above satellite

Ground track
Ground track

The orbit data is extracted from the following two-line orbital elements,

1 13771U 83003B   16125.16538526  .00000896  00000-0  53845-4 0  9996
2 13771  81.1419 114.4853 0040558 276.4381  83.2226 15.09246730812083
Epoch (UTC): 04 May 2016 03:58:09
Eccentricity: 0.0040558
inclination: 81.1419°
perigee height: 510 km
apogee height: 566 km
right ascension of ascending node: 114.4853°
argument of perigee: 276.4381°
revolutions per day: 15.09246730
mean anomaly at epoch: 83.2226°
orbit number at epoch: 81208

The dashed part of the orbit path shows where the satellite is in the earth's shadow,  

DLR